Time,TemperatureF,DewpointF,PressureIn,WindDirection,WindDirectionDegrees,WindSpeedMPH,WindSpeedGustMPH,Humidity,HourlyPrecipIn,Conditions,Clouds,dailyrainin,SoftwareType,DateUTC
2013-10-09 00:14:00,63.0,51.0,-100.00,SE,130,16.0,18.0,63,-99.99,,,-99.99,,2013-10-09 04:14:00,
2013-10-09 00:23:00,63.0,51.0,-100.00,SE,130,16.0,18.0,63,-99.99,,,-99.99,,2013-10-09 04:23:00,
2013-10-09 00:44:00,63.0,50.0,-100.00,ESE,120,13.0,18.0,63,-99.99,,,-99.99,,2013-10-09 04:44:00,
2013-10-09 00:54:00,63.0,50.0,-100.00,ESE,120,13.0,18.0,63,-99.99,,,-99.99,,2013-10-09 04:54:00,
2013-10-09 01:13:00,62.0,50.0,-100.00,ESE,120,13.0,18.0,64,-99.99,,,-99.99,,2013-10-09 05:13:00,
2013-10-09 01:42:00,61.0,49.0,-100.00,ESE,120,11.0,16.0,64,-99.99,,,-99.99,,2013-10-09 05:42:00,
2013-10-09 02:12:00,61.0,48.0,-100.00,ESE,120,11.0,16.0,63,-99.99,,,-99.99,,2013-10-09 06:12:00,
2013-10-09 02:42:00,60.0,47.0,-100.00,ESE,120,11.0,16.0,62,-99.99,,,-99.99,,2013-10-09 06:42:00,
2013-10-09 03:12:00,60.0,47.0,-100.00,ESE,120,13.0,18.0,61,-99.99,,,-99.99,,2013-10-09 07:12:00,
2013-10-09 03:41:00,60.0,46.0,-100.00,ESE,120,16.0,20.0,60,-99.99,,,-99.99,,2013-10-09 07:41:00,
2013-10-09 04:12:00,59.0,46.0,-100.00,ESE,120,18.0,22.0,61,-99.99,,,-99.99,,2013-10-09 08:12:00,
2013-10-09 04:42:00,59.0,46.0,-100.00,ESE,120,18.0,22.0,62,-99.99,,,-99.99,,2013-10-09 08:42:00,
2013-10-09 05:11:00,58.0,46.0,-100.00,SE,130,16.0,20.0,63,-99.99,,,-99.99,,2013-10-09 09:11:00,
2013-10-09 05:43:00,58.0,46.0,-100.00,SE,130,16.0,20.0,64,-99.99,,,-99.99,,2013-10-09 09:43:00,
2013-10-09 06:12:00,57.0,45.0,-100.00,ESE,120,13.0,16.0,64,-99.99,,,-99.99,,2013-10-09 10:12:00,
2013-10-09 06:42:00,57.0,46.0,-100.00,ESE,120,11.0,16.0,66,-99.99,,,-99.99,,2013-10-09 10:42:00,
2013-10-09 07:11:00,56.0,45.0,-100.00,ESE,120,13.0,16.0,65,-99.99,,,-99.99,,2013-10-09 11:11:00,
2013-10-09 07:41:00,56.0,46.0,-100.00,ESE,120,13.0,16.0,67,-99.99,,,-99.99,,2013-10-09 11:41:00,
2013-10-09 08:11:00,56.0,46.0,-100.00,ESE,120,13.0,16.0,68,-99.99,,,-99.99,,2013-10-09 12:11:00,
2013-10-09 08:21:00,56.0,46.0,-100.00,ESE,120,13.0,16.0,68,-99.99,,,-99.99,,2013-10-09 12:21:00,
2013-10-09 08:42:00,56.0,47.0,-100.00,ESE,120,13.0,16.0,71,-99.99,,,-99.99,,2013-10-09 12:42:00,
2013-10-09 10:11:00,57.0,46.0,-100.00,ESE,120,9.0,13.0,66,-99.99,,,-99.99,,2013-10-09 14:11:00,
2013-10-09 10:41:00,58.0,46.0,-100.00,ESE,120,9.0,11.0,65,-99.99,,,-99.99,,2013-10-09 14:41:00,
2013-10-09 11:11:00,59.0,47.0,-100.00,ESE,120,9.0,11.0,65,-99.99,,,-99.99,,2013-10-09 15:11:00,
2013-10-09 11:43:00,60.0,47.0,-100.00,ESE,120,9.0,11.0,61,-99.99,,,-99.99,,2013-10-09 15:43:00,
2013-10-09 12:12:00,61.0,46.0,-100.00,SE,130,7.0,11.0,57,-99.99,,,-99.99,,2013-10-09 16:12:00,
2013-10-09 12:23:00,61.0,46.0,-100.00,SE,130,7.0,11.0,57,-99.99,,,-99.99,,2013-10-09 16:23:00,
2013-10-09 12:42:00,62.0,46.0,-100.00,SE,140,4.0,7.0,56,-99.99,,,-99.99,,2013-10-09 16:42:00,
2013-10-09 13:12:00,63.0,45.0,-100.00,SSE,150,2.0,4.0,53,-99.99,,,-99.99,,2013-10-09 17:12:00,
2013-10-09 13:22:00,63.0,45.0,-100.00,SSE,150,2.0,4.0,53,-99.99,,,-99.99,,2013-10-09 17:22:00,
2013-10-09 13:42:00,63.0,44.0,-100.00,SW,220,2.0,2.0,49,-99.99,,,-99.99,,2013-10-09 17:42:00,
2013-10-09 14:12:00,63.0,45.0,-100.00,West,280,4.0,4.0,52,-99.99,,,-99.99,,2013-10-09 18:12:00,
2013-10-09 14:42:00,63.0,45.0,-100.00,WNW,300,7.0,7.0,52,-99.99,,,-99.99,,2013-10-09 18:42:00,
2013-10-09 15:11:00,63.0,46.0,-100.00,NW,310,7.0,9.0,54,-99.99,,,-99.99,,2013-10-09 19:11:00,
2013-10-09 15:21:00,63.0,46.0,-100.00,NW,310,7.0,9.0,54,-99.99,,,-99.99,,2013-10-09 19:21:00,
2013-10-09 15:42:00,63.0,47.0,-100.00,NW,320,9.0,11.0,56,-99.99,,,-99.99,,2013-10-09 19:42:00,
2013-10-09 16:11:00,63.0,48.0,-100.00,NW,320,9.0,11.0,57,-99.99,,,-99.99,,2013-10-09 20:11:00,
2013-10-09 16:42:00,63.0,49.0,-100.00,NNW,340,9.0,11.0,60,-99.99,,,-99.99,,2013-10-09 20:42:00,
2013-10-09 17:11:00,63.0,49.0,-100.00,NNW,340,9.0,11.0,60,-99.99,,,-99.99,,2013-10-09 21:11:00,
2013-10-09 17:43:00,63.0,50.0,-100.00,NNW,340,9.0,11.0,62,-99.99,,,-99.99,,2013-10-09 21:43:00,
2013-10-09 18:13:00,63.0,51.0,-100.00,NNW,340,9.0,11.0,63,-99.99,,,-99.99,,2013-10-09 22:13:00,
2013-10-09 18:42:00,63.0,51.0,-100.00,North,350,9.0,11.0,64,-99.99,,,-99.99,,2013-10-09 22:42:00,
2013-10-09 19:11:00,63.0,52.0,-100.00,North,350,9.0,11.0,66,-99.99,,,-99.99,,2013-10-09 23:11:00,
2013-10-09 19:22:00,63.0,52.0,-100.00,North,350,9.0,11.0,66,-99.99,,,-99.99,,2013-10-09 23:22:00,
2013-10-09 19:42:00,63.0,53.0,-100.00,North,350,11.0,11.0,70,-99.99,,,-99.99,,2013-10-09 23:42:00,
2013-10-09 20:12:00,63.0,55.0,-100.00,North,360,9.0,11.0,73,-99.99,,,-99.99,,2013-10-10 00:12:00,
2013-10-09 20:42:00,63.0,55.0,-100.00,North,10,9.0,11.0,75,-99.99,,,-99.99,,2013-10-10 00:42:00,
2013-10-09 21:11:00,63.0,56.0,-100.00,NE,40,7.0,9.0,79,-99.99,,,-99.99,,2013-10-10 01:11:00,
2013-10-09 21:42:00,63.0,53.0,-100.00,East,90,4.0,7.0,70,-99.99,,,-99.99,,2013-10-10 01:42:00,
2013-10-09 22:12:00,63.0,51.0,-100.00,East,80,4.0,4.0,62,-99.99,,,-99.99,,2013-10-10 02:12:00,
2013-10-09 23:12:00,62.0,49.0,-100.00,East,90,4.0,4.0,61,-99.99,,,-99.99,,2013-10-10 03:12:00,
2013-10-09 23:43:00,62.0,49.0,-100.00,East,80,4.0,7.0,63,-99.99,,,-99.99,,2013-10-10 03:43:00,